Dewpoint
69 69 71 66 54 49 47 47 49 50 51 53 54 52 56 58 52 49 64 65 66 67 70 72 72 71 71 72 72 73 73 72 73 73 73 73 73 73 73 72 72 72 72 71 71 72 72 72 71
70 69 69 66 48 46 47 50 47 50 54 55 56 57 57 56 61 62 63 66 66 68 71 72 72 71 71 72 73 73 73 74 74 74 73 73 72 73 72 72 71 71 71 73 71 70 72 72 72
70 70 64 58 49 47 48 50 51 54 55 54 55 58 59 59 60 61 65 67 69 71 71 72 71 71 71 73 73 74 73 73 73 73 73 72 72 72 73 72 70 69 69 69 71 69 70 70 70
68 68 65 51 43 48 51 52 53 52 53 55 57 57 61 63 61 65 66 69 69 70 71 72 72 71 71 72 74 73 74 73 73 73 72 72 72 72 72 71 70 69 69 67 66 67 68 69 69
65 63 54 43 44 52 53 53 52 53 54 55 56 58 61 64 65 65 67 68 68 69 71 72 72 72 72 73 74 73 74 74 74 73 72 72 73 73 73 73 72 71 70 68 66 65 67 68 67
58 60 44 46 49 52 53 53 53 55 56 57 58 58 60 65 64 67 67 68 69 70 71 72 72 73 72 73 74 74 74 74 74 73 73 73 73 73 73 73 73 73 72 70 68 67 66 66 65
55 54 50 49 50 50 51 53 54 55 55 56 58 58 62 64 66 66 68 69 70 71 71 72 72 72 72 73 74 74 74 74 73 73 73 73 73 73 73 73 73 72 72 72 70 71 70 68 66
61 58 49 44 46 51 54 54 55 54 54 58 60 58 60 64 66 67 68 69 69 70 70 72 71 70 72 74 74 74 74 73 73 73 72 72 72 72 73 73 73 72 72 72 71 69 69 71 71
64 53 45 44 49 52 54 54 55 56 55 56 57 60 62 65 66 66 66 67 67 68 69 69 69 71 71 73 73 74 73 73 73 72 71 71 71 71 72 72 72 72 71 71 72 72 72 72 71
59 52 48 45 46 53 54 54 55 54 54 56 59 62 64 65 65 64 64 65 65 67 68 68 69 70 70 70 73 73 73 73 73 73 72 71 69 70 71 73 72 72 73 72 72 73 73 73 72
59 53 57 48 46 53 54 55 55 54 53 56 59 61 64 64 64 64 64 64 64 66 67 68 69 69 69 66 72 72 73 73 72 72 72 71 71 72 71 70 67 66 69 70 71 72 73 72 71
56 60 59 51 47 54 54 55 54 54 54 57 60 63 63 64 63 63 63 64 64 65 66 67 68 68 68 68 70 71 71 72 71 71 71 71 70 70 68 67 64 66 68 68 70 70 71 71 71
59 60 57 54 50 49 53 54 54 54 55 59 62 62 63 63 63 63 64 64 64 65 66 67 67 68 68 68 68 70 70 71 71 72 71 71 69 67 66 65 66 66 67 67 65 66 68 68 69
61 59 56 55 54 52 51 53 53 55 55 58 60 61 61 61 61 62 64 64 64 65 65 67 67 68 67 68 68 69 70 71 71 71 70 69 69 68 68 67 65 65 65 65 67 67 68 68 68
59 55 56 56 56 52 52 51 52 55 54 57 59 59 59 60 60 59 63 64 65 64 64 65 66 68 67 67 67 69 69 70 71 70 70 69 69 68 67 68 68 67 66 66 65 66 67 67 67
52 51 51 56 57 56 51 49 53 54 53 54 56 58 59 59 59 58 62 64 65 65 64 66 67 68 67 67 67 69 70 70 71 70 69 69 67 67 68 69 69 70 66 65 66 68 65 65 66
52 47 50 54 57 55 52 50 52 53 53 53 53 54 56 55 56 56 59 62 64 65 66 67 67 67 68 67 68 69 69 70 70 69 68 68 68 68 67 67 69 71 66 65 68 68 67 66 67
48 47 49 50 55 55 54 50 52 52 52 52 52 52 52 53 54 56 58 60 63 65 66 66 67 68 67 68 68 68 68 69 70 69 68 67 68 68 67 66 68 70 67 66 68 66 67 68 68
43 49 46 51 55 54 53 51 50 51 51 51 52 52 52 52 53 56 59 61 64 65 65 65 66 67 67 66 66 66 67 67 68 69 68 67 68 68 69 68 68 69 68 64 67 68 67 65 69
30 41 44 44 53 54 53 52 51 51 50 51 51 51 52 51 52 57 60 62 63 64 64 65 66 66 67 67 66 65 66 66 66 68 68 68 68 68 68 68 67 68 69 68 66 67 66 66 68
8 10 15 29 49 51 43 45 53 52 51 51 51 53 52 51 52 56 60 62 63 63 64 64 65 65 66 67 67 67 67 67 65 65 67 68 68 68 68 68 68 68 69 68 68 67 66 64 66
7 8 7 8 32 32 32 26 32 53 52 49 52 54 53 52 52 55 59 61 63 63 64 64 64 65 66 66 66 65 64 64 65 65 67 66 68 68 68 68 68 68 68 67 67 68 67 68 66
9 8 7 5 3 3 5 5 4 45 52 47 51 55 57 55 54 56 58 61 63 63 63 64 65 66 66 66 66 65 65 65 65 66 67 67 68 69 68 68 68 67 68 68 67 68 68 69 68
9 8 12 8 4 -0 1 4 3 48 51 52 57 60 59 58 57 56 58 63 61 63 64 65 67 66 67 67 66 64 64 64 65 65 66 66 68 68 69 69 69 68 68 68 68 68 68 70 70
9 6 1 4 2 1 10 33 49 53 56 57 60 60 58 57 57 57 63 64 62 63 64 66 67 67 67 68 67 66 65 64 64 65 65 65 67 68 68 68 68 69 68 68 68 68 67 67 67
10 7 6 4 3 5 39 41 43 45 60 61 60 61 60 59 60 61 62 66 66 66 66 67 66 66 68 69 67 68 68 68 67 67 67 67 66 67 68 68 69 68 68 68 69 69 69 68 69
9 8 7 6 9 35 41 44 40 41 54 60 61 61 61 61 61 62 62 65 66 65 64 65 66 65 67 69 69 69 68 67 67 67 69 69 69 68 68 68 68 69 68 68 68 69 69 70 68
2 6 -0 2 0 36 32 32 32 32 41 47 50 52 53 56 58 60 64 65 64 63 64 64 64 64 66 66 65 65 66 68 70 68 66 68 69 70 70 69 68 68 69 68 68 68 68 69 70
8 13 12 9 6 23 25 23 34 33 32 39 41 44 48 53 56 58 61 64 63 63 62 64 61 59 60 63 63 63 64 67 70 70 69 67 68 69 69 69 69 69 69 69 68 68 68 68 68
21 18 14 10 12 20 21 22 37 40 39 38 38 42 49 53 54 54 54 55 56 57 57 57 54 53 55 58 59 59 62 65 67 70 71 71 68 68 70 70 69 69 69 69 68 68 68 68 68
Wind_Speed
9 6 5 4 5 6 4 3 1 8 5 1 14 8 10 7 2 4 13 13 14 12 10 10 10 12 13 14 14 16 16 16 16 15 15 16 15 14 14 13 13 13 13 12 12 12 12 12 12
9 11 3 1 5 12 4 6 6 3 7 21 14 11 7 4 6 11 11 11 17 14 9 9 12 11 13 13 14 15 15 16 15 14 14 14 14 13 12 12 11 11 10 10 11 10 11 11 10
19 15 3 4 6 14 12 6 11 10 8 5 7 10 4 3 9 13 10 15 14 12 11 11 13 13 12 12 13 14 16 15 14 14 13 14 12 11 10 12 10 11 9 8 8 9 9 9 8
10 4 2 2 12 6 13 14 11 15 13 12 15 11 6 7 10 8 15 15 14 11 11 12 14 14 13 12 12 14 15 14 14 13 12 12 11 10 9 9 8 9 9 8 8 7 8 7 6
3 2 1 4 6 7 14 18 12 9 7 15 8 10 9 3 17 21 16 13 14 11 9 12 14 14 14 12 12 13 14 13 13 11 10 10 9 8 7 6 8 8 9 8 8 7 7 6 4
3 1 7 10 10 8 14 17 16 14 13 17 16 14 4 16 22 16 14 12 11 13 11 11 15 15 15 13 13 13 12 13 12 9 8 8 7 6 6 6 7 8 8 8 8 7 6 4 4
0 3 4 15 17 14 14 16 15 19 18 10 13 9 6 15 13 15 12 11 10 10 11 12 15 16 16 15 14 12 11 11 11 8 6 5 5 3 3 4 5 6 7 7 6 5 4 4 5
1 2 4 4 15 6 16 8 10 24 9 16 14 8 13 16 17 14 12 11 9 10 11 13 13 12 12 12 14 12 11 10 9 7 5 4 3 2 0 0 1 3 4 5 4 3 3 3 4
1 3 6 8 14 14 15 10 16 7 19 6 5 12 17 23 20 17 14 9 10 9 9 11 11 10 7 8 10 10 10 10 8 6 4 2 1 2 3 5 4 3 2 1 1 3 3 3 3
4 3 3 5 12 24 20 24 15 11 18 6 17 20 25 25 22 22 18 15 12 14 12 12 13 12 10 6 8 6 5 5 4 3 1 1 1 3 5 7 6 7 8 7 6 6 7 6 5
2 2 5 9 11 20 22 15 8 26 11 22 31 28 27 23 20 21 19 18 16 15 13 13 14 11 10 6 6 4 2 3 3 2 3 3 3 6 7 7 8 6 8 8 8 8 9 9 8
3 5 7 4 16 16 22 15 13 12 10 23 27 29 25 25 22 20 19 19 17 14 13 14 12 14 10 7 7 6 5 5 4 5 6 5 5 6 6 8 8 9 7 4 2 3 5 9 10
1 7 3 13 11 20 21 15 15 8 23 25 28 26 27 25 20 16 16 16 17 19 15 15 12 14 13 10 8 7 8 7 6 6 6 7 5 5 7 11 12 7 6 5 4 4 1 2 8
8 5 3 13 13 14 20 15 10 14 24 26 26 25 26 25 22 16 16 17 17 17 19 17 15 14 13 12 12 12 9 9 7 6 5 6 5 4 6 6 8 9 6 2 3 4 6 6 7
4 2 8 5 7 10 20 4 10 24 24 26 27 25 23 21 19 22 22 21 20 17 17 20 17 14 15 16 15 12 12 10 9 8 6 7 6 4 3 5 7 7 8 8 11 11 9 3 1
2 4 5 4 8 6 3 9 15 22 26 23 25 25 24 20 25 20 22 20 19 16 19 18 16 16 16 14 14 14 13 13 12 11 9 8 5 5 4 5 7 9 7 8 9 8 7 6 4
1 4 5 4 9 7 4 8 20 21 24 22 23 23 23 18 19 17 24 25 24 21 21 20 18 18 18 16 13 11 12 14 14 11 10 11 9 8 6 6 6 9 8 9 6 4 4 5 7
8 6 5 9 12 8 8 11 24 23 23 25 20 20 19 20 23 20 25 24 25 22 21 18 15 16 17 13 9 6 7 10 10 14 13 14 11 8 7 8 5 8 9 10 7 4 5 5 8
6 10 11 9 9 11 15 15 27 25 19 22 22 21 19 20 16 21 22 23 22 19 19 20 20 17 16 13 13 8 8 7 9 13 14 14 11 10 8 9 7 4 7 9 11 6 7 7 7
10 9 5 2 13 13 11 15 23 27 29 27 25 21 18 14 14 16 19 22 24 24 22 20 21 20 18 15 11 8 9 5 7 12 13 14 13 12 11 12 10 7 6 10 11 7 6 4 6
8 8 4 3 6 3 6 8 14 28 19 19 20 19 15 17 20 20 20 22 19 21 23 23 22 22 18 17 8 4 2 2 5 6 10 15 16 14 14 14 13 10 7 11 12 10 7 9 5
5 1 3 7 8 5 6 6 8 24 27 24 21 19 18 17 15 19 21 22 22 23 20 20 20 21 19 17 16 15 16 17 10 10 9 13 13 17 15 16 16 15 12 13 13 9 9 5 11
2 4 3 2 2 2 2 3 5 8 20 25 24 23 14 14 15 13 10 10 11 16 21 22 20 20 18 19 17 18 16 15 14 10 11 11 14 16 16 17 18 18 15 16 16 13 10 10 11
3 3 7 6 2 5 4 8 1 3 18 16 17 20 24 23 17 13 17 10 14 9 11 10 14 18 17 19 20 21 20 19 16 17 16 15 15 15 17 15 16 18 17 17 17 16 12 12 12
4 6 3 2 2 6 6 4 5 19 8 23 25 21 22 24 24 15 10 9 10 14 12 11 10 10 8 11 15 20 21 19 20 20 17 15 16 15 17 17 18 18 20 19 18 17 17 15 12
3 5 5 5 4 2 10 8 11 12 13 20 21 17 17 19 3 5 7 10 10 11 11 9 3 6 7 11 13 13 13 15 18 16 16 16 17 17 16 18 19 20 19 19 18 17 18 16 15
3 2 2 5 3 6 3 1 7 18 11 17 18 17 15 10 6 7 9 10 11 11 12 10 7 6 8 7 12 15 13 16 22 21 17 17 17 18 17 20 20 20 21 20 19 17 18 17 18
4 7 1 4 3 6 3 5 4 11 13 19 16 13 7 4 8 10 12 13 13 13 13 13 8 7 3 5 4 6 10 13 20 21 24 24 22 18 20 19 19 20 20 21 19 18 16 18 17
3 3 8 6 4 6 6 3 10 9 10 16 18 16 14 16 16 15 14 16 9 6 7 6 5 4 5 6 9 11 14 16 18 21 25 25 25 21 19 22 21 21 20 20 20 21 20 19 21
11 6 4 4 2 5 8 2 9 10 17 20 20 20 17 18 16 15 14 10 10 8 6 2 3 7 9 10 11 13 14 15 15 17 18 21 24 23 24 21 23 23 21 21 22 23 23 22 22
Wind_Direction
151 125 67 59 77 63 66 188 116 129 138 172 147 126 131 29 138 159 139 155 138 152 183 177 139 131 117 112 110 109 110 111 107 107 105 102 98 97 98 98 99 99 98 94 97 99 103 98 95
151 134 130 335 68 107 55 77 154 211 119 103 90 112 55 61 58 113 125 155 145 155 178 167 145 135 124 120 120 115 119 114 115 113 111 104 102 100 98 102 98 98 97 93 102 104 101 98 97
169 177 151 177 119 132 156 208 154 118 160 120 111 62 66 41 99 135 128 133 132 154 163 162 151 141 132 124 125 119 118 119 117 114 112 108 106 102 97 103 103 100 95 94 97 102 105 102 99
201 198 266 175 139 152 160 185 158 138 78 81 112 71 71 103 132 135 131 135 138 149 156 165 155 144 136 130 128 126 125 123 119 118 116 112 111 110 103 104 106 106 101 102 107 113 114 113 101
30 146 346 116 87 115 152 163 151 104 104 98 95 98 98 93 116 129 138 141 140 140 150 153 157 148 142 141 132 129 127 127 121 117 120 118 112 108 103 92 114 104 99 103 110 114 116 109 80
349 44 84 92 102 121 152 160 137 114 103 100 100 99 85 128 130 142 142 140 139 143 145 157 155 154 149 148 142 135 136 129 124 124 132 121 123 118 112 100 98 105 105 105 108 109 100 82 55
59 54 86 124 126 142 158 141 142 128 122 111 135 97 108 133 143 136 128 120 129 139 148 159 155 156 155 148 146 140 141 132 132 142 142 137 141 129 109 95 97 97 96 92 93 90 76 53 39
56 87 92 142 160 140 148 128 154 131 119 118 139 141 155 160 137 122 117 123 131 138 136 145 156 154 162 150 149 147 141 145 147 155 158 160 167 158 136 138 57 91 87 75 66 61 46 20 14
327 92 132 138 133 152 158 130 161 87 136 141 164 144 147 140 134 129 129 133 137 139 134 133 151 149 138 145 152 148 154 154 155 173 175 177 280 314 329 310 334 326 0 2 311 302 310 318 305
55 95 187 220 146 151 160 156 146 134 149 98 108 118 139 143 148 151 158 163 162 158 157 159 163 164 159 159 145 156 164 140 158 166 158 176 285 320 329 311 302 296 292 281 263 266 268 263 261
14 188 304 173 149 156 151 152 120 141 168 152 146 148 150 154 163 165 169 170 171 164 162 173 175 171 176 162 156 162 165 158 196 219 234 251 298 314 301 291 298 293 288 274 268 252 246 245 243
338 300 281 105 134 138 151 133 143 165 158 153 151 154 154 166 174 175 171 169 166 172 176 182 182 180 186 175 175 182 183 198 216 245 262 264 285 295 286 288 286 299 331 310 323 245 238 230 236
302 3 5 81 135 150 144 159 152 178 140 142 151 157 167 178 180 175 176 171 170 173 180 190 186 187 188 184 195 204 208 214 227 254 260 257 256 277 295 297 304 330 356 14 347 327 15 202 237
195 192 97 103 84 124 142 155 131 152 142 146 155 168 177 182 180 168 169 174 181 181 179 184 190 194 189 197 197 205 213 229 233 234 255 239 241 274 304 305 309 330 349 324 273 295 310 282 269
250 115 97 130 109 110 114 135 166 155 156 152 167 175 185 193 172 180 177 183 182 187 179 184 189 193 196 200 204 208 215 223 227 229 236 240 265 235 278 293 307 340 321 317 350 347 353 36 238
154 57 156 210 145 173 123 182 165 161 163 171 170 184 190 188 188 188 181 182 184 184 181 185 192 193 203 206 208 211 217 224 225 222 220 230 224 220 247 289 326 350 324 317 345 351 343 6 33
113 171 187 185 195 154 157 140 174 175 171 174 177 182 195 193 196 189 180 181 183 185 183 191 191 192 198 209 216 229 218 208 217 222 226 230 224 218 239 273 315 345 321 320 325 329 340 331 326
227 219 208 200 193 177 171 179 171 182 180 184 186 190 192 191 194 187 180 180 181 182 188 190 193 184 189 191 185 194 207 234 229 224 225 237 240 235 233 264 302 349 325 317 316 311 315 293 322
246 225 218 211 184 172 203 181 180 185 188 189 196 198 201 205 199 176 173 174 175 181 179 182 185 188 178 182 187 190 202 217 229 237 232 238 249 246 240 253 280 320 319 306 315 323 329 321 345
230 230 195 195 180 190 192 199 188 187 199 192 194 203 208 197 168 168 168 170 176 178 186 183 192 188 191 189 193 190 187 214 216 228 230 242 241 241 245 243 252 262 296 310 303 305 321 318 350
59 93 63 210 147 182 139 247 203 203 197 196 202 202 208 198 173 172 174 178 176 181 185 190 195 197 195 200 176 162 169 170 200 228 234 244 245 242 238 251 247 246 253 275 294 291 289 298 305
101 130 76 73 150 208 178 262 242 197 199 194 190 194 200 191 176 169 179 184 183 192 189 194 196 199 202 199 202 203 205 216 224 216 227 246 246 246 238 242 249 247 240 255 270 279 265 254 276
191 88 51 21 84 4 252 239 272 163 197 197 187 180 156 137 143 130 142 174 214 194 193 197 202 204 201 201 206 212 224 229 229 227 240 244 250 247 241 237 243 245 245 244 251 266 264 253 263
63 70 62 67 98 290 288 215 92 355 218 185 159 149 136 124 129 161 182 168 191 200 200 204 206 211 205 203 210 216 222 231 242 250 249 248 246 245 244 240 238 241 242 242 246 250 255 258 255
90 61 290 227 175 229 336 66 18 338 196 158 139 130 137 152 184 175 104 79 172 185 187 179 203 227 236 231 233 225 228 231 234 247 251 251 251 242 238 234 239 243 242 242 241 248 252 250 252
70 145 180 200 170 328 30 16 347 4 77 100 101 112 140 175 197 111 105 69 108 109 91 86 169 235 247 241 248 261 261 251 248 243 245 250 246 245 237 228 231 239 241 242 238 240 243 245 249
167 116 171 110 48 77 4 36 29 52 78 112 127 152 186 221 210 173 136 137 117 98 85 93 104 62 30 296 256 245 252 257 252 251 243 243 242 245 241 234 230 230 236 240 237 239 244 237 243
86 141 262 39 166 110 30 48 41 44 59 96 115 125 154 148 178 170 141 140 120 120 105 100 87 64 50 53 20 327 313 303 271 254 246 244 243 233 238 234 235 236 235 232 233 240 240 236 242
1 38 62 103 76 139 121 55 3 10 28 67 56 56 64 68 69 74 101 128 134 120 85 86 72 46 17 1 346 330 322 300 297 256 247 244 246 239 229 235 237 237 236 237 231 233 236 233 241
83 55 86 104 117 80 114 151 26 75 79 73 61 54 57 62 65 68 67 70 66 54 41 44 4 353 349 340 337 332 323 320 323 324 263 256 249 245 244 239 238 240 237 235 233 234 235 229 236